TimeCDT,TemperatureF,Dew PointF,Humidity,Sea Level PressureIn,VisibilityMPH,Wind Direction,Wind SpeedMPH,Gust SpeedMPH,PrecipitationIn,Events,Conditions,WindDirDegrees,DateUTC
12:54 AM,34.0,16.0,48,30.42,10.0,North,6.9,-,N/A,,Clear,350,2012-10-12 05:54:00
1:54 AM,32.0,16.0,52,30.44,10.0,NNW,5.8,-,N/A,,Clear,340,2012-10-12 06:54:00
2:54 AM,33.1,17.1,52,30.44,10.0,North,4.6,-,N/A,,Clear,350,2012-10-12 07:54:00
3:54 AM,33.1,17.1,52,30.44,10.0,NNW,4.6,-,N/A,,Clear,340,2012-10-12 08:54:00
4:54 AM,32.0,17.1,54,30.45,10.0,NNW,4.6,-,N/A,,Clear,340,2012-10-12 09:54:00
5:54 AM,30.9,17.1,57,30.45,10.0,Calm,Calm,-,N/A,,Clear,0,2012-10-12 10:54:00
6:54 AM,28.0,17.1,63,30.46,10.0,Calm,Calm,-,N/A,,Clear,0,2012-10-12 11:54:00
7:54 AM,28.9,18.0,64,30.46,10.0,East,4.6,-,N/A,,Clear,90,2012-10-12 12:54:00
8:54 AM,30.9,21.9,69,30.48,10.0,Calm,Calm,-,N/A,,Clear,0,2012-10-12 13:54:00
9:54 AM,39.0,24.1,55,30.48,10.0,SE,10.4,-,N/A,,Clear,130,2012-10-12 14:54:00
10:54 AM,45.0,21.0,39,30.46,10.0,SE,9.2,-,N/A,,Clear,130,2012-10-12 15:54:00
11:54 AM,46.9,18.0,32,30.43,10.0,SE,10.4,-,N/A,,Clear,140,2012-10-12 16:54:00
12:54 PM,50.0,18.0,28,30.41,10.0,SSE,13.8,18.4,N/A,,Clear,150,2012-10-12 17:54:00
1:54 PM,52.0,16.0,24,30.37,10.0,SSE,12.7,-,N/A,,Clear,160,2012-10-12 18:54:00
2:54 PM,53.1,16.0,23,30.34,10.0,South,15.0,21.9,N/A,,Clear,170,2012-10-12 19:54:00
3:54 PM,53.1,16.0,23,30.33,10.0,South,16.1,-,N/A,,Clear,170,2012-10-12 20:54:00
4:54 PM,53.6,12.2,19,30.26,10.0,SSE,10.4,20.7,N/A,,Clear,160,2012-10-12 21:54:00
5:54 PM,51.1,14.0,23,30.26,10.0,SSE,12.7,19.6,N/A,,Clear,150,2012-10-12 22:54:00
6:54 PM,46.9,15.1,28,30.24,10.0,SSE,8.1,-,N/A,,Clear,160,2012-10-12 23:54:00
7:54 PM,45.0,17.1,33,30.20,10.0,SE,11.5,-,N/A,,Clear,130,2012-10-13 00:54:00
8:54 PM,44.6,17.6,34,30.15,10.0,SSE,11.5,-,N/A,,Scattered Clouds,150,2012-10-13 01:54:00
9:54 PM,46.0,21.9,39,30.17,9.0,SSE,13.8,-,0.00,Rain,Light Rain,160,2012-10-13 02:54:00
10:54 PM,48.0,23.0,37,30.13,10.0,SSE,18.4,26.5,0.01,,Overcast,160,2012-10-13 03:54:00
11:54 PM,48.0,26.1,42,30.10,10.0,SSE,19.6,25.3,0.00,,Overcast,160,2012-10-13 04:54:00